Location: Hebron
(33.0265°N, 96.8636°W)
Time: 07:55:33
(UTC+00:00)

Okean 1 - Visible Passes

Search period start: 03 December 2023 00:00
Search period end: 13 December 2023 00:00
Orbit: 514 x 540 km, 82.5° (Epoch: 02 December)

Date Brightness Start Highest point End Pass type
(mag) Time Alt. Az. Time Alt. Az. Time Alt. Az.
11 Dec 3.5 12:46:43 10° N 12:50:32 70° E 12:54:19 10° SSE visible
12 Dec 5.4 00:58:48 10° SSE 00:59:30 14° SSE 00:59:30 14° SSE visible
12 Dec 3.8 12:35:07 10° N 12:38:54 61° E 12:42:40 10° SSE visible
